[[{"header":{"parameterUnit":"m.s-1","parameterCategory":2,"la1":30.2991,"la2":30.254,"lo1":-89.0895,"lo2":-89.0444,"dy":0.0017,"dx":0.0017,"nx":28,"ny":28,"refTime":"2025-03-22T09:00:00:Z","depth":"0","parameterNumber":2,"parameterNumberName":"U-component_of_CURRENTS"},"data":[0,0,0,0,0,0,0,0,0,0,0,0,0,0,0,0,0,0,0,0,0,0,0,0,0,0,0,0,0,0,0,0,0,0,0,0,0,0,0,0,0,0,0,0,0,0,0,0,0,0,0,0,0,0,0,0,0,0,0.3838,0.3838,0,0.3887,0.3888,0.3888,0.3891,0.3891,0.389,0.3889,0.3908,0.3909,0.391,0,0,0,0,0,0,0,0,0,0,0,0,0,0.3826,0.3826,0.3838,0.3838,0.3839,0.3887,0.3888,0.3889,0.3891,0.3891,0.389,0.3889,0.3907,0.3909,0.391,0,0,0,0,0,0,0,0,0,0,0,0,0,0.385,0.3826,0.3838,0.3845,0.3846,0.3887,0.3888,0.3889,0.3892,0.3891,0.3889,0.3888,0.3907,0.3908,0.391,0.3942,0,0,0.3915,0.3916,0,0,0,0,0,0,0,0,0.3849,0.3851,0.3843,0.3845,0.3846,0.3881,0.3891,0.3905,0.3892,0.3876,0.3889,0.3888,0.3896,0.3898,0.3912,0.3943,0.3943,0.3915,0.3917,0.3917,0.3918,0,0,0,0,0,0,0,0.3847,0.3849,0.3859,0.3844,0.3845,0.3873,0.3875,0.3894,0.3892,0.3877,0.3877,0.3881,0.3896,0.3911,0.3913,0.3944,0.3915,0.3917,0.3918,0.3919,0.4013,0.4015,0,0,0,0,0,0,0.3835,0.3847,0.3857,0.386,0.3843,0.3874,0.3876,0.3872,0.3892,0.3894,0.3881,0.388,0.3908,0.3911,0.3913,0.4019,0.3917,0.3919,0.392,0.4012,0.4014,0.4015,0,0,0,0,0,0,0.3834,0.3835,0.3855,0.3854,0.3858,0.3874,0.387,0.3873,0.3892,0.3895,0.3897,0.3897,0.3908,0.3911,0.3938,0.4017,0.392,0.3921,0.401,0.4012,0.4014,0.4187,0,0,0,0,0,0,0.3834,0.3835,0.3843,0.3853,0.3858,0.3899,0.3871,0.3875,0.3894,0.3894,0.3909,0.3909,0.3907,0.3936,0.394,0.4017,0.3923,0.4008,0.4011,0.4014,0.418,0.4195,0.4208,0,0,0,0,0,0.3833,0.3853,0.3843,0.3845,0.3863,0.39,0.3907,0.3915,0.3896,0.3924,0.3921,0.3909,0.3956,0.3938,0.3943,0.4023,0.4007,0.401,0.4014,0.4173,0.4192,0.4208,0,0,0,0,0,0,0.3861,0.3855,0.3844,0.3862,0.3885,0.39,0.3924,0.3923,0.3944,0.3936,0.3929,0.3932,0.3992,0.3965,0.3946,0.4051,0.398,0.3984,0.4099,0.4117,0.4131,0.4166,0.3924,0,0,0,0,0,0.3866,0.3871,0.388,0.3895,0.3904,0.3913,0.393,0.3934,0.3947,0.3955,0.3962,0.3969,0.401,0.4026,0.4045,0.4099,0.4123,0.4148,0.4162,0.4175,0.4202,0.4318,0.4348,0.4026,0.4026,0.4026,0,0,0.3877,0.3878,0.3879,0.3901,0.3911,0.3951,0.3922,0.3951,0.3999,0.3954,0.4013,0.4022,0.4033,0.4106,0.4129,0.4094,0.4275,0.4179,0.4191,0.4211,0.4325,0.4357,0.4386,0.4028,0.4028,0.4028,0,0,0.3911,0.3904,0.3923,0.3948,0.397,0.3984,0.3994,0.4015,0.404,0.4098,0.4085,0.4138,0.4174,0.4218,0.4242,0.4339,0.4349,0.4333,0.4446,0.4559,0.4588,0.4614,0.4682,0.4712,0.4341,0.4341,0.4342,0,0.3925,0.3948,0.3941,0.3978,0.4009,0.4001,0.405,0.4086,0.4117,0.4168,0.4134,0.425,0.4245,0.4376,0.4406,0.4383,0.4427,0.439,0.4585,0.4611,0.4635,0.4698,0.473,0.435,0.4349,0.4348,0.4347,0,0.3974,0.4003,0.4021,0.4058,0.4101,0.4138,0.4181,0.423,0.4254,0.4301,0.4425,0.4437,0.4515,0.4523,0.45,0.4667,0.4638,0.4598,0.4557,0.4679,0.4735,0.4766,0.4363,0.436,0.4357,0.4355,0,0,0.3963,0.4039,0.4044,0.4093,0.4145,0.4193,0.4281,0.4383,0.4477,0.4525,0.4679,0.4736,0.4752,0.4777,0.4766,0.4851,0.5043,0.4802,0.4804,0.4896,0.5284,0.5119,0.5135,0.5054,0.506,0.5065,0.5256,0,0.3999,0.4093,0.4119,0.4224,0.4282,0.4326,0.4425,0.4523,0.4605,0.4752,0.4819,0.494,0.4848,0.4909,0.499,0.5042,0.513,0.4993,0.5127,0.5131,0.4994,0.5168,0.4865,0.4998,0.5285,0.529,0.5294,0,0.4029,0.4098,0.4204,0.4339,0.4369,0.4434,0.4607,0.4695,0.4885,0.4969,0.5103,0.5151,0.5302,0.5201,0.5374,0.5297,0.5309,0.5327,0.5335,0.5145,0.5023,0.492,0.5042,0.4887,0.5339,0.5336,0.5333,0,0.4044,0.4156,0.4251,0.429,0.4438,0.4512,0.4594,0.4763,0.4886,0.5116,0.5245,0.5404,0.5508,0.5583,0.5572,0.5517,0.575,0.5676,0.5539,0.5525,0.5274,0.5227,0.5282,0.5818,0.5818,0.5817,0.5816,0,0.4078,0.4156,0.4265,0.4327,0.4479,0.4551,0.4731,0.4853,0.5054,0.5222,0.5348,0.5501,0.5612,0.5724,0.5705,0.5713,0.5857,0.561,0.5592,0.5317,0.5274,0.5125,0.5067,0.5824,0.5823,0.5821,0.582,0,0.4104,0.4155,0.4293,0.4445,0.4494,0.4612,0.4805,0.4936,0.5107,0.534,0.5425,0.5644,0.5767,0.5823,0.5953,0.586,0.5717,0.5843,0.5484,0.5419,0.5104,0.5066,0.4997,0.4857,0.5767,0.5764,0.5762,0,0.4125,0.4195,0.4383,0.4468,0.4539,0.4695,0.4802,0.4971,0.5095,0.539,0.5501,0.5701,0.5781,0.5906,0.5794,0.5767,0.5626,0.5484,0.531,0.5095,0.5043,0.4903,0.4781,0.5053,0.5045,0.5039,0.5033,0,0.4205,0.4272,0.4402,0.4568,0.4681,0.4794,0.4933,0.5033,0.5216,0.5372,0.5528,0.561,0.5675,0.5501,0.5464,0.5405,0.5197,0.5349,0.5248,0.4605,0.434,0.4189,0.4903,0.4977,0.4982,0.4987,0.499,0.4992,0.4279,0.4389,0.4544,0.4686,0.4785,0.4833,0.4857,0.4971,0.5098,0.5174,0.537,0.5323,0.5245,0.5118,0.5045,0.4703,0.478,0.451,0.4523,0.4434,0.4162,0.4729,0.4692,0.4696,0.4699,0.4702,0.4705,0,0.4384,0.4495,0.464,0.4756,0.4779,0.4827,0.4891,0.4818,0.4827,0.4907,0.4926,0.473,0.4547,0.4444,0.4128,0.3904,0.3753,0.3799,0.3545,0.3501,0.4107,0.3932,0.3578,0.3578,0.3578,0.3578,0.3578,0.3579,0.4455,0.4611,0.4661,0.4693,0.4715,0.4588,0.4551,0.445,0.442,0.4209,0.4019,0.3981,0.3969,0.3818,0.3496,0.3383,0.3144,0.2949,0.3056,0.3472,0.3538,0.3602,0.3424,0.297,0.2969,0.2243,0.2238,0.2233]},{"header":{"parameterUnit":"m.s-1","parameterCategory":2,"la1":30.2991,"la2":30.254,"lo1":-89.0895,"lo2":-89.0444,"dy":0.0017,"dx":0.0017,"nx":28,"ny":28,"refTime":"2025-03-22T09:00:00:Z","depth":"0","parameterNumber":3,"parameterNumberName":"V-component_of_CURRENTS"},"data":[0,0,0,0,0,0,0,0,0,0,0,0,0,0,0,0,0,0,0,0,0,0,0,0,0,0,0,0,0,0,0,0,0,0,0,0,0,0,0,0,0,0,0,0,0,0,0,0,0,0,0,0,0,0,0,0,0,0,0.0123,0.0123,0,0.0076,0.0075,0.0074,0.0031,0.003,0.003,0.003,-0.0035,-0.0036,-0.0037,0,0,0,0,0,0,0,0,0,0,0,0,0,0.0126,0.0127,0.0123,0.0123,0.0122,0.0076,0.0075,0.0074,0.0031,0.003,0.003,0.0029,-0.0034,-0.0036,-0.0038,0,0,0,0,0,0,0,0,0,0,0,0,0,0.0105,0.0127,0.0123,0.0096,0.0093,0.0076,0.0075,0.0074,0.0031,0.003,0.003,0.0029,-0.0034,-0.0036,-0.0038,-0.0039,0,0,-0.0044,-0.0045,0,0,0,0,0,0,0,0,0.0106,0.0105,0.0101,0.0098,0.0095,0.006,0.0052,0.0036,0.0031,0.0053,0.003,0.0029,-0.0003,-0.0008,-0.0018,-0.0042,-0.0045,-0.0044,-0.0045,-0.0046,-0.0047,0,0,0,0,0,0,0,0.0108,0.0106,0.0102,0.01,0.0097,0.007,0.0066,0.0049,0.0027,0.0051,0.0048,0.0046,-0.0005,-0.0016,-0.0019,-0.0046,-0.0044,-0.0046,-0.0047,-0.0048,-0.005,-0.0049,0,0,0,0,0,0,0.0121,0.0108,0.0104,0.0101,0.0101,0.007,0.0066,0.007,0.0027,0.0021,0.0046,0.0044,-0.0012,-0.0017,-0.0022,0.0008,-0.0046,-0.0048,-0.0049,-0.0051,-0.005,-0.0048,0,0,0,0,0,0,0.0121,0.0121,0.0106,0.0104,0.0101,0.0071,0.0076,0.007,0.0062,0.0024,0.0017,0.0045,-0.0012,-0.0019,-0.0031,0.0004,-0.0049,-0.0051,-0.0052,-0.0051,-0.0049,0.0047,0,0,0,0,0,0,0.0121,0.0122,0.0129,0.0106,0.0101,0.011,0.0076,0.0069,0.0062,0.0059,0.0021,0.0014,-0.0013,-0.0028,-0.0033,0.0,-0.0053,-0.0054,-0.0052,-0.005,0.0042,0.0052,0.006,0,0,0,0,0,0.0122,0.0139,0.0129,0.0129,0.0112,0.0111,0.0107,0.0082,0.0063,0.007,0.0039,0.0016,-0.0017,-0.0029,-0.0036,-0.0001,-0.0055,-0.0052,-0.005,0.0038,0.005,0.0059,0,0,0,0,0,0,0.0142,0.0136,0.0125,0.0138,0.0131,0.0104,0.0107,0.0089,0.007,0.0063,0.0023,0.0015,0.0019,-0.0007,-0.0019,0.0005,-0.0037,-0.0035,0.0032,0.0043,0.0051,0.0107,-0.0054,0,0,0,0,0,0.0152,0.0162,0.015,0.016,0.016,0.0134,0.0129,0.0114,0.0094,0.0084,0.0058,0.0034,0.0025,0.0021,0.0002,0.0012,0.0011,0.0032,0.0041,0.0048,0.0089,0.0118,0.0134,-0.004,-0.004,-0.004,0,0,0.016,0.0158,0.0163,0.0165,0.0154,0.0173,0.013,0.013,0.0148,0.0081,0.0092,0.006,0.0032,0.0044,0.0045,0.0028,0.009,0.0052,0.0059,0.0096,0.0122,0.014,0.0155,-0.0038,-0.0038,-0.0038,0,0,0.0191,0.0184,0.0208,0.0211,0.0208,0.0199,0.0204,0.0186,0.018,0.0183,0.0145,0.0146,0.0115,0.012,0.0114,0.0164,0.0132,0.0143,0.0239,0.0266,0.0281,0.0295,0.0291,0.0303,0.0153,0.0153,0.0153,0,0.0202,0.023,0.0214,0.0242,0.0253,0.0219,0.0251,0.0248,0.0226,0.0241,0.0201,0.0204,0.0166,0.0217,0.0226,0.019,0.0182,0.02,0.0281,0.0294,0.0306,0.0299,0.0312,0.0158,0.0158,0.0157,0.0157,0,0.0259,0.0278,0.0293,0.0322,0.0334,0.0351,0.0351,0.0365,0.0348,0.0346,0.038,0.034,0.0356,0.0333,0.0291,0.0364,0.032,0.0284,0.026,0.033,0.0316,0.0328,0.0165,0.0164,0.0162,0.0161,0,0,0.029,0.0326,0.0331,0.0359,0.0375,0.0395,0.0439,0.0476,0.053,0.0506,0.0588,0.0553,0.054,0.0535,0.0491,0.0508,0.0559,0.0436,0.0435,0.0444,0.0597,0.0525,0.0529,0.053,0.0533,0.0536,0.0544,0,0.0337,0.0401,0.041,0.0476,0.0509,0.0512,0.0566,0.0597,0.0615,0.0686,0.0673,0.0721,0.0615,0.0638,0.0639,0.0601,0.0598,0.0559,0.052,0.0519,0.0456,0.0545,0.0522,0.0525,0.0555,0.0557,0.0558,0,0.0395,0.0429,0.0496,0.0564,0.0583,0.0624,0.0718,0.076,0.0843,0.0871,0.092,0.0911,0.0961,0.0853,0.0836,0.0813,0.0717,0.0664,0.0662,0.0582,0.0471,0.0463,0.0544,0.0358,0.0575,0.0574,0.0573,0,0.0429,0.0494,0.055,0.0569,0.0641,0.0688,0.0733,0.0814,0.0901,0.1005,0.1107,0.1118,0.1185,0.1087,0.0964,0.0909,0.0933,0.0842,0.0681,0.0672,0.0644,0.0629,0.056,0.082,0.082,0.082,0.082,0,0.0479,0.0525,0.0571,0.0604,0.0706,0.0733,0.0865,0.0921,0.1059,0.122,0.1209,0.1362,0.125,0.1243,0.1064,0.0933,0.1009,0.0736,0.0693,0.067,0.0657,0.0485,0.0373,0.082,0.082,0.082,0.082,0,0.0516,0.0536,0.0611,0.0688,0.0723,0.0797,0.0959,0.1081,0.1183,0.1411,0.1472,0.1587,0.1591,0.1432,0.131,0.1097,0.0831,0.0855,0.0821,0.0773,0.042,0.0315,0.0205,0.0136,0.0697,0.0696,0.0695,0,0.0542,0.0578,0.0674,0.0751,0.0791,0.0907,0.1024,0.1136,0.1294,0.1565,0.1712,0.1796,0.1901,0.1687,0.134,0.1036,0.0827,0.0764,0.065,0.0437,0.0289,0.0196,0.0141,0.0637,0.0636,0.0634,0.0633,0,0.0606,0.0634,0.0711,0.0853,0.0972,0.1115,0.1284,0.1425,0.1614,0.1829,0.2103,0.2206,0.2028,0.1757,0.132,0.1082,0.0625,0.0724,0.0542,0.0285,0.015,0.0051,0.0564,0.0622,0.0623,0.0624,0.0625,0.0625,0.067,0.0746,0.0854,0.0993,0.1133,0.1321,0.1462,0.1687,0.1953,0.2285,0.2358,0.2554,0.2093,0.1527,0.1196,0.0526,0.0539,0.0294,0.0199,0.0135,0.0034,0.0505,0.0481,0.0482,0.0482,0.0482,0.0482,0,0.0777,0.0864,0.1001,0.1171,0.1333,0.1384,0.1653,0.1825,0.215,0.2455,0.268,0.2539,0.2001,0.1411,0.0491,0.0061,-0.0074,-0.0156,-0.0277,-0.0297,0.0164,0.0124,-0.0021,-0.0021,-0.0021,-0.0021,-0.0021,-0.002,0.0848,0.0995,0.1059,0.1309,0.1435,0.1666,0.1817,0.2076,0.2323,0.2656,0.2768,0.2812,0.2282,0.0777,-0.0187,-0.0374,-0.0651,-0.074,-0.0836,-0.0534,-0.0499,-0.0466,-0.0528,-0.0808,-0.0809,-0.1249,-0.1254,-0.1258]}],[{"header":{"parameterUnit":"m.s-1","parameterCategory":2,"la1":30.2991,"la2":30.254,"lo1":-89.0895,"lo2":-89.0444,"dy":0.0017,"dx":0.0017,"nx":28,"ny":28,"refTime":"2025-03-22T09:00:00:Z","depth":"2","parameterNumber":2,"parameterNumberName":"U-component_of_CURRENTS"},"data":[0,0,0,0,0,0,0,0,0,0,0,0,0,0,0,0,0,0,0,0,0,0,0,0,0,0,0,0,0,0,0,0,0,0,0,0,0,0,0,0,0,0,0,0,0,0,0,0,0,0,0,0,0,0,0,0,0,0,0.2871,0.2872,0,0.292,0.292,0.292,0.2932,0.2933,0.2933,0.2934,0.2961,0.2961,0.2962,0,0,0,0,0,0,0,0,0,0,0,0,0,0.2811,0.2811,0.2871,0.2873,0.2874,0.292,0.292,0.292,0.2932,0.2933,0.2933,0.2934,0.2961,0.2961,0.2962,0,0,0,0,0,0,0,0,0,0,0,0,0,0.2838,0.2811,0.2871,0.2891,0.2894,0.292,0.292,0.292,0.2932,0.2933,0.2933,0.2934,0.2961,0.2961,0.2962,0.2952,0,0,0.2963,0.2964,0,0,0,0,0,0,0,0,0.2837,0.2839,0.2887,0.289,0.2894,0.2928,0.2909,0.2933,0.2932,0.2909,0.2934,0.2934,0.2953,0.2954,0.2951,0.2954,0.2955,0.2963,0.2964,0.2964,0.2964,0,0,0,0,0,0,0,0.2835,0.2838,0.2882,0.2889,0.2893,0.2907,0.291,0.2913,0.292,0.2911,0.2914,0.2932,0.2953,0.295,0.2952,0.2955,0.2963,0.2964,0.2964,0.2964,0.3069,0.3072,0,0,0,0,0,0,0.2843,0.2836,0.2881,0.2885,0.2875,0.2908,0.2911,0.291,0.2921,0.2926,0.2932,0.2933,0.2949,0.2951,0.2953,0.3048,0.2964,0.2964,0.2965,0.3067,0.307,0.3073,0,0,0,0,0,0,0.2841,0.2845,0.2879,0.2869,0.2875,0.2909,0.2906,0.291,0.2927,0.2938,0.2941,0.2948,0.2949,0.2952,0.2984,0.3045,0.2965,0.2965,0.3064,0.3068,0.3071,0.3171,0,0,0,0,0,0,0.2838,0.2844,0.2849,0.2869,0.2877,0.2917,0.2907,0.2911,0.294,0.2942,0.2952,0.2954,0.295,0.2983,0.2984,0.3045,0.2966,0.3061,0.3066,0.307,0.3165,0.3178,0.3189,0,0,0,0,0,0.2836,0.2845,0.2848,0.2855,0.288,0.292,0.2924,0.2945,0.294,0.2958,0.2967,0.2955,0.3014,0.2985,0.2986,0.3048,0.3059,0.3064,0.307,0.316,0.3176,0.3189,0,0,0,0,0,0,0.2824,0.2848,0.2852,0.2868,0.2903,0.2925,0.2946,0.2954,0.2972,0.2977,0.2971,0.2975,0.3035,0.3021,0.2988,0.3094,0.3041,0.3047,0.3109,0.3124,0.3136,0.315,0.2966,0,0,0,0,0,0.2824,0.2834,0.2866,0.2882,0.2899,0.2921,0.294,0.2959,0.298,0.2988,0.2994,0.3014,0.3054,0.3071,0.3092,0.3133,0.3155,0.3179,0.3191,0.3202,0.3216,0.3326,0.335,0.3091,0.3091,0.3091,0,0,0.283,0.2842,0.2852,0.2882,0.2903,0.2934,0.2933,0.2975,0.3002,0.2988,0.3021,0.3053,0.3075,0.3137,0.3162,0.3134,0.3283,0.3209,0.3218,0.3226,0.3335,0.336,0.3383,0.3095,0.3094,0.3094,0,0,0.2847,0.2853,0.2869,0.2901,0.2947,0.2959,0.2976,0.301,0.3028,0.3082,0.3084,0.3159,0.319,0.3233,0.3257,0.3347,0.3345,0.3351,0.3423,0.3531,0.3554,0.3574,0.3615,0.3638,0.3356,0.3356,0.3356,0,0.2856,0.2869,0.2886,0.2916,0.2946,0.2971,0.3005,0.3028,0.307,0.3111,0.3113,0.3236,0.3252,0.335,0.3388,0.338,0.3411,0.3364,0.3549,0.3569,0.3588,0.3626,0.365,0.3361,0.3361,0.336,0.336,0,0.2888,0.2905,0.2923,0.2956,0.2992,0.3029,0.307,0.3116,0.3153,0.3194,0.3312,0.3357,0.3453,0.3466,0.3457,0.3596,0.3563,0.3554,0.3512,0.3621,0.3652,0.3676,0.3369,0.3367,0.3366,0.3364,0,0,0.2881,0.2932,0.294,0.2965,0.3017,0.3054,0.3115,0.3191,0.3285,0.3336,0.3466,0.3541,0.3601,0.3632,0.3645,0.3718,0.3874,0.3693,0.3697,0.3734,0.4074,0.3915,0.3925,0.3902,0.3907,0.3911,0.4035,0,0.2898,0.2965,0.2974,0.3033,0.3073,0.3119,0.3175,0.3259,0.337,0.3504,0.3576,0.3706,0.365,0.3747,0.3812,0.3866,0.3944,0.3839,0.3963,0.3966,0.3814,0.3951,0.3615,0.3686,0.4057,0.4061,0.4064,0,0.2912,0.2962,0.302,0.3091,0.3111,0.3149,0.3303,0.3368,0.3549,0.3652,0.3805,0.3882,0.4003,0.3967,0.4103,0.4037,0.4078,0.4095,0.4101,0.3937,0.3852,0.3642,0.3714,0.4103,0.41,0.4097,0.4094,0,0.2904,0.2982,0.3026,0.3054,0.3141,0.319,0.3255,0.3429,0.352,0.3785,0.3926,0.4066,0.418,0.4248,0.428,0.4229,0.4417,0.4361,0.4246,0.4232,0.3961,0.3915,0.45,0.45,0.45,0.45,0.4499,0,0.2892,0.2934,0.3038,0.3058,0.3146,0.3218,0.3353,0.3474,0.3675,0.3815,0.4005,0.4135,0.4267,0.4375,0.4371,0.4369,0.4505,0.4287,0.4279,0.398,0.3936,0.4304,0.4279,0.4504,0.4503,0.4502,0.4502,0,0.2834,0.2908,0.2967,0.308,0.3126,0.3201,0.3359,0.3496,0.369,0.3904,0.3992,0.4222,0.4355,0.4446,0.4576,0.4481,0.4506,0.4479,0.4082,0.4023,0.4217,0.4197,0.4363,0.4359,0.4356,0.4353,0.4351,0,0.2806,0.2831,0.2953,0.3008,0.3048,0.318,0.3283,0.3488,0.3651,0.391,0.4017,0.4226,0.4305,0.4412,0.4362,0.4359,0.4477,0.4036,0.3879,0.4241,0.4217,0.4201,0.4186,0.3555,0.3547,0.354,0.3534,0,0.2778,0.2814,0.2851,0.2946,0.3061,0.3174,0.335,0.3445,0.3694,0.3815,0.3938,0.3989,0.4128,0.3955,0.4001,0.3941,0.4,0.3886,0.4444,0.3624,0.3485,0.3459,0.347,0.3471,0.3477,0.3482,0.3485,0.3488,0.2742,0.2785,0.2854,0.2887,0.3029,0.3152,0.3178,0.3344,0.3458,0.3564,0.3705,0.3653,0.3701,0.355,0.3438,0.3378,0.3633,0.3464,0.3485,0.3513,0.338,0.3241,0.3153,0.3157,0.3161,0.3165,0.3167,0,0.2719,0.2802,0.2824,0.2904,0.2961,0.3078,0.3212,0.3163,0.3182,0.3288,0.3287,0.2984,0.2883,0.2957,0.2736,0.2701,0.2667,0.2611,0.2545,0.2611,0.2669,0.249,0.2029,0.2025,0.2022,0.2018,0,0,0.2762,0.2754,0.2729,0.2806,0.2879,0.2906,0.293,0.2829,0.283,0.2659,0.2597,0.2785,0.2869,0.2429,0.2359,0.2155,0.2369,0.2072,0.2992,0.2983,0.3036,0.3172,0.2973,0,0,0,0,0]},{"header":{"parameterUnit":"m.s-1","parameterCategory":2,"la1":30.2991,"la2":30.254,"lo1":-89.0895,"lo2":-89.0444,"dy":0.0017,"dx":0.0017,"nx":28,"ny":28,"refTime":"2025-03-22T09:00:00:Z","depth":"2","parameterNumber":3,"parameterNumberName":"V-component_of_CURRENTS"},"data":[0,0,0,0,0,0,0,0,0,0,0,0,0,0,0,0,0,0,0,0,0,0,0,0,0,0,0,0,0,0,0,0,0,0,0,0,0,0,0,0,0,0,0,0,0,0,0,0,0,0,0,0,0,0,0,0,0,0,0.0058,0.0058,0,0.0023,0.0023,0.0022,-0.0011,-0.0012,-0.0012,-0.0013,-0.0055,-0.0055,-0.0056,0,0,0,0,0,0,0,0,0,0,0,0,0,0.0058,0.0059,0.0058,0.0058,0.0058,0.0023,0.0023,0.0022,-0.0011,-0.0012,-0.0012,-0.0013,-0.0054,-0.0055,-0.0056,0,0,0,0,0,0,0,0,0,0,0,0,0,0.0044,0.0059,0.0059,0.0037,0.0035,0.0023,0.0023,0.0022,-0.0011,-0.0012,-0.0012,-0.0013,-0.0054,-0.0055,-0.0056,-0.0051,0,0,-0.006,-0.006,0,0,0,0,0,0,0,0,0.0045,0.0044,0.004,0.0038,0.0036,0.001,0.0007,-0.0003,-0.0011,0.0006,-0.0013,-0.0013,-0.0033,-0.0036,-0.0041,-0.0053,-0.0055,-0.006,-0.006,-0.0061,-0.0061,0,0,0,0,0,0,0,0.0046,0.0045,0.0044,0.004,0.0037,0.0016,0.0013,0.0005,-0.001,0.0004,0.0002,-0.0001,-0.0035,-0.004,-0.0043,-0.0055,-0.006,-0.0061,-0.0061,-0.0062,-0.0064,-0.0064,0,0,0,0,0,0,0.0054,0.0047,0.0045,0.0043,0.0039,0.0016,0.0014,0.0019,-0.001,-0.0015,-0.0001,-0.0003,-0.0038,-0.0041,-0.0044,-0.003,-0.0061,-0.0062,-0.0063,-0.0065,-0.0064,-0.0064,0,0,0,0,0,0,0.0054,0.0054,0.0047,0.0043,0.0041,0.0017,0.0023,0.0018,0.0013,-0.0014,-0.0019,-0.0001,-0.0039,-0.0043,-0.0051,-0.0032,-0.0062,-0.0063,-0.0066,-0.0065,-0.0064,-0.0006,0,0,0,0,0,0,0.0054,0.0055,0.0061,0.0045,0.0042,0.0048,0.0023,0.0018,0.0012,0.0009,-0.0015,-0.002,-0.004,-0.005,-0.0052,-0.0034,-0.0064,-0.0066,-0.0065,-0.0064,-0.0009,-0.0004,0.0001,0,0,0,0,0,0.0055,0.0068,0.0061,0.0061,0.0051,0.0049,0.0046,0.0026,0.0013,0.0018,-0.0004,-0.0019,-0.0044,-0.005,-0.0054,-0.0035,-0.0067,-0.0066,-0.0064,-0.0011,-0.0005,0.0001,0,0,0,0,0,0,0.0067,0.0065,0.0058,0.0068,0.0062,0.0043,0.0045,0.0032,0.0018,0.0013,-0.0014,-0.002,-0.0019,-0.0036,-0.0041,-0.0033,-0.0057,-0.0056,-0.0015,-0.0009,-0.0005,0.0018,-0.0065,0,0,0,0,0,0.0074,0.0085,0.0076,0.0083,0.0084,0.0066,0.0062,0.005,0.0035,0.0029,0.001,-0.0008,-0.0016,-0.002,-0.0033,-0.0027,-0.0042,-0.0018,-0.0013,-0.0008,0.0008,0.0015,0.0023,-0.0059,-0.0059,-0.0059,0,0,0.0079,0.008,0.0084,0.0087,0.008,0.0097,0.0062,0.0062,0.0075,0.0027,0.0035,0.0009,-0.0011,-0.0008,-0.0008,-0.0019,0.0,-0.0007,-0.0003,0.0011,0.0017,0.0025,0.0033,-0.0058,-0.0058,-0.0059,0,0,0.0102,0.0098,0.0119,0.0124,0.0122,0.0115,0.0119,0.0105,0.0098,0.0099,0.007,0.0057,0.0041,0.0033,0.0027,0.0055,0.0026,0.0046,0.0093,0.01,0.0107,0.0113,0.0077,0.008,0.0051,0.0051,0.0051,0,0.0108,0.0137,0.0123,0.0149,0.0163,0.0131,0.0163,0.0153,0.0136,0.014,0.011,0.0096,0.0067,0.0088,0.0086,0.0069,0.0052,0.0072,0.0108,0.0114,0.0119,0.0081,0.0084,0.0054,0.0053,0.0053,0.0053,0,0.0154,0.0177,0.0191,0.022,0.0231,0.025,0.0244,0.0244,0.0227,0.0216,0.0221,0.018,0.0179,0.0159,0.0126,0.0153,0.0119,0.0112,0.0096,0.0131,0.0088,0.0089,0.0058,0.0057,0.0056,0.0055,0,0,0.0174,0.0217,0.0223,0.026,0.0274,0.0295,0.0314,0.0332,0.0373,0.0323,0.0372,0.0316,0.029,0.0281,0.0242,0.0231,0.0227,0.0186,0.0185,0.0156,0.0212,0.016,0.0155,0.0229,0.023,0.0231,0.0156,0,0.0218,0.0286,0.0295,0.0367,0.0406,0.04,0.044,0.0448,0.0446,0.0481,0.0422,0.0451,0.0341,0.0358,0.0321,0.0267,0.0238,0.0246,0.0178,0.0175,0.013,0.0159,0.0183,0.0118,0.0157,0.0157,0.0157,0,0.0269,0.031,0.0385,0.0468,0.0489,0.0527,0.06,0.0634,0.0654,0.066,0.0646,0.0612,0.0576,0.0501,0.0392,0.0402,0.0309,0.0248,0.0244,0.0183,0.0128,0.0094,0.0118,0.0159,0.0159,0.0159,0.0159,0,0.0306,0.0382,0.0449,0.0474,0.0551,0.0591,0.0638,0.0681,0.0757,0.0787,0.0852,0.0771,0.0781,0.0649,0.0475,0.045,0.0361,0.0318,0.0175,0.0168,0.0171,0.0163,0.0258,0.0258,0.0258,0.0258,0.0258,0,0.0361,0.0418,0.0475,0.0516,0.0632,0.0658,0.0787,0.0825,0.0918,0.1042,0.0957,0.1029,0.0826,0.0739,0.0546,0.0356,0.0409,0.019,0.016,0.0186,0.0181,0.0209,0.0205,0.0255,0.0256,0.0257,0.0257,0,0.0404,0.0429,0.0522,0.061,0.0655,0.074,0.0906,0.1013,0.1079,0.1244,0.1273,0.1239,0.1114,0.0884,0.0682,0.0478,0.0292,0.0213,0.0227,0.0199,0.0066,0.0066,0.0047,0.0045,0.0043,0.0041,0.004,0,0.0435,0.0479,0.0602,0.0689,0.0738,0.0869,0.0987,0.1084,0.1223,0.1374,0.1479,0.141,0.136,0.1007,0.0664,0.0323,0.0288,0.0122,0.0077,0.008,0.0052,0.0054,0.0056,0.0085,0.0084,0.0084,0.0083,0,0.0504,0.0539,0.0632,0.0805,0.0931,0.1085,0.1258,0.1401,0.1544,0.1652,0.1771,0.1733,0.1412,0.1062,0.0604,0.0374,0.0169,0.0096,0.0141,0.0132,0.011,0.0084,0.0086,0.0077,0.0078,0.0078,0.0079,0.0079,0.0575,0.0663,0.079,0.0961,0.1097,0.13,0.1451,0.1636,0.1831,0.2004,0.195,0.1868,0.1503,0.0892,0.0514,0.0122,0.0136,-0.0018,-0.0013,-0.0008,0.0008,-0.0016,-0.0072,-0.0072,-0.0073,-0.0073,-0.0073,0,0.0697,0.08,0.0953,0.1149,0.1301,0.136,0.1635,0.1771,0.1985,0.2075,0.2096,0.1713,0.1341,0.0929,0.0345,-0.0011,-0.0026,-0.0124,-0.0059,-0.0051,-0.0044,-0.0028,-0.012,-0.0121,-0.0122,-0.0123,0,0,0.0768,0.0944,0.1019,0.1282,0.1418,0.1625,0.1782,0.1957,0.2063,0.2106,0.2033,0.1921,0.1437,0.1005,0.054,0.0211,0.0158,0.0141,0.0215,0.0354,0.0365,0.005,0.0088,0,0,0,0,0]}],[{"header":{"parameterUnit":"m.s-1","parameterCategory":2,"la1":30.2991,"la2":30.254,"lo1":-89.0895,"lo2":-89.0444,"dy":0.0017,"dx":0.0017,"nx":28,"ny":28,"refTime":"2025-03-22T09:00:00:Z","depth":"4","parameterNumber":2,"parameterNumberName":"U-component_of_CURRENTS"},"data":[0,0,0,0,0,0,0,0,0,0,0,0,0,0,0,0,0,0,0,0,0,0,0,0,0,0,0,0,0,0,0,0,0,0,0,0,0,0,0,0,0,0,0,0,0,0,0,0,0,0,0,0,0,0,0,0,0,0,0.1646,0.1646,0,0.1689,0.169,0.169,0.1724,0.1725,0.1725,0.1726,0.1788,0.1789,0.179,0,0,0,0,0,0,0,0,0,0,0,0,0,0.16,0.16,0.1645,0.1646,0.1647,0.1689,0.169,0.169,0.1724,0.1725,0.1725,0.1726,0.1788,0.1789,0.1791,0,0,0,0,0,0,0,0,0,0,0,0,0,0.1627,0.16,0.1645,0.1671,0.1674,0.1689,0.169,0.169,0.1724,0.1725,0.1726,0.1726,0.1787,0.1789,0.1791,0.1784,0,0,0.1796,0.1797,0,0,0,0,0,0,0,0,0.1625,0.1628,0.1667,0.1669,0.1673,0.1705,0.1697,0.1723,0.1724,0.1702,0.1726,0.1727,0.1763,0.1767,0.1769,0.1787,0.1789,0.1796,0.1797,0.1798,0.1798,0,0,0,0,0,0,0,0.1623,0.1626,0.166,0.1667,0.1671,0.1684,0.1688,0.1702,0.1725,0.1704,0.1707,0.1716,0.1765,0.1767,0.1771,0.179,0.1796,0.1797,0.1798,0.1799,0.1926,0.1928,0,0,0,0,0,0,0.1622,0.1624,0.1659,0.1662,0.1654,0.1684,0.1689,0.1691,0.1725,0.1732,0.1715,0.1718,0.1764,0.1769,0.1773,0.1857,0.1798,0.1799,0.18,0.1923,0.1926,0.1929,0,0,0,0,0,0,0.162,0.1624,0.1657,0.1647,0.1652,0.1684,0.1686,0.1692,0.173,0.1734,0.1741,0.1753,0.1765,0.1771,0.1818,0.1857,0.18,0.1802,0.1921,0.1924,0.1928,0.1968,0,0,0,0,0,0,0.1619,0.1623,0.1648,0.1646,0.1653,0.1686,0.1686,0.1692,0.1734,0.1738,0.1768,0.1772,0.1766,0.1816,0.182,0.1858,0.1803,0.1918,0.1922,0.1926,0.1964,0.1973,0.198,0,0,0,0,0,0.1617,0.1632,0.1648,0.1654,0.1678,0.1687,0.1692,0.1715,0.1735,0.1753,0.1781,0.1773,0.1847,0.1819,0.1823,0.1863,0.1916,0.1921,0.1926,0.196,0.1971,0.198,0,0,0,0,0,0,0.1622,0.1637,0.1655,0.1675,0.1694,0.1694,0.1718,0.1737,0.1772,0.1791,0.1793,0.18,0.1857,0.186,0.1828,0.1916,0.1885,0.1891,0.1909,0.1919,0.1927,0.1911,0.1804,0,0,0,0,0,0.1636,0.1656,0.1668,0.169,0.1699,0.1719,0.1737,0.1756,0.1776,0.1794,0.1815,0.1847,0.1876,0.1898,0.192,0.1962,0.1986,0.1997,0.2005,0.2011,0.2004,0.2118,0.2136,0.1946,0.1946,0.1946,0,0,0.1646,0.1659,0.1672,0.1695,0.171,0.1724,0.1731,0.1766,0.1792,0.1795,0.1848,0.1875,0.1896,0.1943,0.1971,0.1954,0.2073,0.2018,0.2023,0.2012,0.2126,0.2144,0.2161,0.195,0.1949,0.1949,0,0,0.1654,0.1684,0.1698,0.1714,0.1749,0.1759,0.1777,0.1802,0.1832,0.1882,0.1897,0.1948,0.1991,0.201,0.2025,0.2094,0.2113,0.2117,0.2143,0.2255,0.2271,0.2286,0.2311,0.2328,0.2122,0.2122,0.2122,0,0.1673,0.168,0.1706,0.1718,0.1735,0.1776,0.179,0.1822,0.1867,0.1896,0.191,0.1998,0.2019,0.2071,0.2098,0.2111,0.2158,0.2098,0.2265,0.228,0.2295,0.2317,0.2335,0.2124,0.2124,0.2124,0.2124,0,0.1672,0.1696,0.1702,0.1731,0.1759,0.1778,0.1817,0.1866,0.1915,0.1944,0.2024,0.2058,0.2111,0.2135,0.2135,0.2243,0.2236,0.2262,0.2235,0.2316,0.2334,0.2352,0.2128,0.2127,0.2126,0.2126,0,0,0.1663,0.1695,0.1703,0.1714,0.1767,0.1779,0.1843,0.1893,0.1942,0.2007,0.2068,0.213,0.2166,0.2186,0.221,0.2296,0.2428,0.2328,0.2333,0.234,0.2636,0.2444,0.2444,0.2509,0.2513,0.2516,0.2597,0,0.1656,0.1658,0.1697,0.1724,0.1719,0.1791,0.1831,0.1898,0.1974,0.2047,0.2111,0.2175,0.2182,0.2224,0.2316,0.2424,0.2484,0.24,0.2566,0.2568,0.238,0.2462,0.2529,0.261,0.2614,0.2617,0.2619,0,0.1634,0.1635,0.1642,0.169,0.1701,0.1743,0.1832,0.1887,0.2002,0.206,0.2154,0.221,0.233,0.2332,0.2536,0.2498,0.256,0.2622,0.2628,0.2443,0.241,0.2522,0.2651,0.2649,0.2647,0.2644,0.2642,0,0.1559,0.1605,0.1605,0.1618,0.1675,0.1724,0.1785,0.1894,0.1968,0.2092,0.2167,0.229,0.2408,0.2518,0.2651,0.2626,0.2869,0.2849,0.2704,0.2689,0.2818,0.2802,0.2967,0.2967,0.2967,0.2967,0.2966,0,0.1498,0.1509,0.1576,0.1565,0.1589,0.1679,0.1763,0.1825,0.1982,0.2076,0.218,0.2278,0.2485,0.2637,0.2695,0.2761,0.2915,0.2705,0.2713,0.2827,0.2812,0.2828,0.2811,0.297,0.2969,0.2968,0.2968,0,0.1396,0.1441,0.1437,0.1507,0.1541,0.1565,0.1742,0.1803,0.1962,0.2104,0.2153,0.2364,0.2537,0.2674,0.2885,0.2826,0.2889,0.2859,0.294,0.2952,0.2602,0.2586,0.2677,0.2671,0.2666,0.2662,0.2659,0,0.1329,0.1312,0.1368,0.1386,0.1427,0.1514,0.1563,0.1743,0.1838,0.2134,0.2176,0.2416,0.2525,0.2655,0.2799,0.285,0.2823,0.2805,0.27,0.2581,0.2581,0.2573,0.2565,0.2651,0.265,0.2649,0.2647,0,0.1187,0.1226,0.1234,0.1265,0.1317,0.1385,0.1505,0.1562,0.1798,0.1968,0.2158,0.2263,0.2447,0.2571,0.264,0.2671,0.2793,0.2752,0.2761,0.2662,0.2551,0.2554,0.2551,0.263,0.2633,0.2634,0.2635,0,0.1097,0.1084,0.1119,0.1148,0.1213,0.1258,0.133,0.1476,0.1603,0.1925,0.1999,0.2234,0.2458,0.2479,0.2549,0.256,0.2498,0.24,0.2425,0.2445,0.233,0.2153,0.2121,0,0,0,0,0,0.1005,0.1004,0.1009,0.1045,0.1117,0.1164,0.1294,0.1393,0.1617,0.1691,0.1859,0.2002,0.2142,0.2261,0.2222,0.2394,0.2476,0.2332,0.2367,0.2536,0.2556,0.244,0,0,0,0,0,0,0.0955,0.0957,0.0963,0.0971,0.0997,0.107,0.1144,0.1287,0.1352,0.1592,0.1677,0.1865,0.2016,0.216,0.2189,0.2216,0.2188,0.2475,0.2468,0.2525,0.2543,0.2559,0.2446,0,0,0,0,0]},{"header":{"parameterUnit":"m.s-1","parameterCategory":2,"la1":30.2991,"la2":30.254,"lo1":-89.0895,"lo2":-89.0444,"dy":0.0017,"dx":0.0017,"nx":28,"ny":28,"refTime":"2025-03-22T09:00:00:Z","depth":"4","parameterNumber":3,"parameterNumberName":"V-component_of_CURRENTS"},"data":[0,0,0,0,0,0,0,0,0,0,0,0,0,0,0,0,0,0,0,0,0,0,0,0,0,0,0,0,0,0,0,0,0,0,0,0,0,0,0,0,0,0,0,0,0,0,0,0,0,0,0,0,0,0,0,0,0,0,0.0098,0.0098,0,0.0085,0.0085,0.0085,0.0073,0.0073,0.0073,0.0072,0.0058,0.0058,0.0058,0,0,0,0,0,0,0,0,0,0,0,0,0,0.0088,0.0089,0.0099,0.0098,0.0098,0.0086,0.0085,0.0085,0.0073,0.0073,0.0072,0.0072,0.0058,0.0058,0.0058,0,0,0,0,0,0,0,0,0,0,0,0,0,0.0085,0.0089,0.0099,0.0091,0.009,0.0086,0.0085,0.0085,0.0073,0.0073,0.0072,0.0072,0.0058,0.0058,0.0058,0.0059,0,0,0.0057,0.0056,0,0,0,0,0,0,0,0,0.0086,0.0086,0.0092,0.0091,0.0091,0.0081,0.0076,0.0076,0.0073,0.0079,0.0072,0.0072,0.0066,0.0065,0.0063,0.0058,0.0058,0.0056,0.0056,0.0056,0.0056,0,0,0,0,0,0,0,0.0086,0.0086,0.0093,0.0092,0.0091,0.008,0.0079,0.0076,0.0073,0.0078,0.0078,0.0077,0.0066,0.0063,0.0062,0.0057,0.0056,0.0056,0.0056,0.0056,0.0057,0.0057,0,0,0,0,0,0,0.009,0.0087,0.0093,0.0093,0.0088,0.008,0.008,0.0084,0.0073,0.0072,0.0077,0.0076,0.0064,0.0063,0.0062,0.0073,0.0056,0.0056,0.0055,0.0057,0.0057,0.0057,0,0,0,0,0,0,0.009,0.0091,0.0094,0.0089,0.0089,0.0081,0.0085,0.0084,0.0083,0.0072,0.0071,0.0079,0.0064,0.0062,0.0064,0.0072,0.0056,0.0055,0.0056,0.0057,0.0057,0.009,0,0,0,0,0,0,0.009,0.0091,0.0096,0.009,0.0089,0.0099,0.0086,0.0084,0.0083,0.0082,0.0073,0.0072,0.0063,0.0065,0.0064,0.0071,0.0055,0.0056,0.0056,0.0057,0.0088,0.0091,0.0094,0,0,0,0,0,0.0089,0.0099,0.0096,0.0097,0.0096,0.0099,0.0098,0.0091,0.0084,0.0089,0.0081,0.0072,0.0067,0.0065,0.0064,0.0071,0.0056,0.0056,0.0057,0.0087,0.0091,0.0094,0,0,0,0,0,0,0.0095,0.0098,0.0095,0.0105,0.0105,0.0098,0.0102,0.0095,0.0092,0.009,0.0078,0.0076,0.0079,0.0071,0.0069,0.0072,0.0059,0.0059,0.0083,0.0086,0.0088,0.0099,0.0055,0,0,0,0,0,0.0099,0.0108,0.0107,0.0114,0.0117,0.0109,0.0109,0.0104,0.01,0.0099,0.0092,0.0084,0.008,0.008,0.0074,0.0079,0.0054,0.0082,0.0085,0.0087,0.0094,0.0066,0.0067,0.0059,0.0059,0.0059,0,0,0.0103,0.0105,0.011,0.0116,0.0115,0.0132,0.0109,0.0113,0.0125,0.0098,0.0111,0.0093,0.0082,0.0086,0.0087,0.0082,0.0073,0.0088,0.009,0.0096,0.0067,0.0067,0.0068,0.006,0.006,0.0059,0,0,0.012,0.0119,0.0136,0.0144,0.0147,0.0145,0.0148,0.0145,0.0142,0.0149,0.013,0.0117,0.0117,0.0106,0.0102,0.0115,0.0086,0.0114,0.014,0.0112,0.0113,0.0113,0.0066,0.0062,0.0118,0.0118,0.0118,0,0.0125,0.0152,0.0141,0.0164,0.0181,0.0156,0.0186,0.0177,0.0173,0.0175,0.016,0.0143,0.0127,0.0128,0.0131,0.0122,0.0096,0.0129,0.0116,0.0116,0.0115,0.0067,0.0062,0.012,0.012,0.0119,0.0119,0,0.0161,0.0187,0.0199,0.0225,0.0236,0.0257,0.0251,0.0251,0.024,0.023,0.0223,0.019,0.0183,0.0169,0.0156,0.0147,0.0125,0.012,0.0108,0.0118,0.0067,0.0061,0.0122,0.0122,0.0121,0.0121,0,0,0.0169,0.0218,0.0224,0.0261,0.0277,0.0295,0.0307,0.0319,0.0333,0.03,0.0311,0.0277,0.0247,0.0239,0.0207,0.0177,0.0139,0.0152,0.015,0.0106,0.0064,0.005,0.0041,0.0133,0.0133,0.0132,0.0024,0,0.0207,0.0278,0.0285,0.0352,0.0396,0.0386,0.0408,0.0408,0.0394,0.0391,0.0332,0.0329,0.0277,0.0272,0.0231,0.0169,0.0128,0.0168,0.0061,0.0057,0.0045,0.0036,0.0131,0.0019,0.0018,0.0017,0.0016,0,0.0246,0.0296,0.0376,0.0445,0.0461,0.0489,0.0527,0.0542,0.0517,0.0504,0.0467,0.0418,0.0363,0.032,0.0202,0.0232,0.0153,0.0092,0.0087,0.0062,0.0033,0.0011,0.0005,0.0005,0.0006,0.0007,0.0008,0,0.0283,0.036,0.0434,0.0459,0.0522,0.0551,0.0577,0.0579,0.0612,0.0573,0.0577,0.0492,0.0462,0.0349,0.0211,0.0211,0.0074,0.0059,-0.0036,-0.0039,-0.0009,-0.0008,-0.0025,-0.0025,-0.0024,-0.0024,-0.0024,0,0.0332,0.0391,0.0461,0.0506,0.0591,0.0611,0.0689,0.0685,0.0706,0.0743,0.0641,0.0634,0.0472,0.0368,0.0231,0.0076,0.0086,-0.0036,-0.0064,0.0005,0.0009,-0.0015,-0.0012,-0.0028,-0.0027,-0.0026,-0.0026,0,0.0364,0.0408,0.0502,0.0586,0.0615,0.0678,0.0779,0.0831,0.0826,0.0865,0.0856,0.0753,0.0606,0.0423,0.0237,0.0119,-0.0038,-0.0095,-0.0023,-0.0044,-0.0143,-0.0138,-0.0214,-0.0216,-0.0217,-0.0218,-0.0218,0,0.0392,0.0445,0.056,0.0623,0.0666,0.0767,0.0839,0.0887,0.0936,0.0934,0.0943,0.0823,0.0723,0.0444,0.0246,-0.0032,-0.0067,-0.0158,-0.0146,-0.0141,-0.0161,-0.0154,-0.0147,-0.022,-0.022,-0.0221,-0.0221,0,0.0444,0.0479,0.0551,0.0681,0.0773,0.0895,0.0985,0.1034,0.1076,0.1072,0.1022,0.0866,0.0695,0.0458,0.0239,0.0043,-0.0105,-0.017,-0.0169,-0.0159,-0.0149,-0.0166,-0.0158,-0.0225,-0.0224,-0.0224,-0.0224,0,0.0473,0.0526,0.0616,0.0736,0.0852,0.0972,0.1033,0.1089,0.1142,0.1115,0.1101,0.0905,0.0798,0.0496,0.0297,0.0096,0.0044,-0.002,-0.0028,-0.0027,0.0057,0.0098,0.0074,0,0,0,0,0,0.0501,0.0561,0.0667,0.08,0.0919,0.0998,0.1103,0.1152,0.1178,0.1155,0.1134,0.0968,0.0673,0.0542,0.034,0.0262,-0.0001,0.0016,-0.008,-0.0246,-0.0242,-0.0177,0,0,0,0,0,0,0.0513,0.0602,0.0663,0.083,0.0931,0.1076,0.1152,0.1183,0.1164,0.1147,0.0993,0.0914,0.0623,0.0791,0.0336,0.0273,0.0183,-0.0125,-0.0129,-0.0249,-0.0245,-0.0241,-0.0173,0,0,0,0,0]}]]